Time,TemperatureF,DewpointF,PressureIn,WindDirection,WindDirectionDegrees,WindSpeedMPH,WindSpeedGustMPH,Humidity,HourlyPrecipIn,Conditions,Clouds,dailyrainin,SoftwareType,DateUTC
2013-07-11 00:02:00,68.9,56.7,30.15,West,270,0.0,0.0,65,0.00,,,0.00,meteohub,2013-07-11 05:02:00,
2013-07-11 00:07:00,68.9,56.7,30.15,West,270,0.0,0.0,65,0.00,,,0.00,meteohub,2013-07-11 05:07:00,
2013-07-11 00:12:00,68.9,56.3,30.15,West,270,0.0,0.0,64,0.00,,,0.00,meteohub,2013-07-11 05:12:00,
2013-07-11 00:17:00,69.1,56.5,30.15,West,270,0.0,0.0,64,0.00,,,0.00,meteohub,2013-07-11 05:17:00,
2013-07-11 00:22:00,69.1,56.5,30.15,West,270,0.0,0.0,64,0.00,,,0.00,meteohub,2013-07-11 05:22:00,
2013-07-11 00:27:00,69.1,56.5,30.15,West,270,0.0,0.0,64,0.00,,,0.00,meteohub,2013-07-11 05:27:00,
2013-07-11 00:32:00,69.1,56.5,30.15,West,270,0.0,0.0,64,0.00,,,0.00,meteohub,2013-07-11 05:32:00,
2013-07-11 00:37:00,69.3,56.5,30.15,West,270,0.0,0.0,64,0.00,,,0.00,meteohub,2013-07-11 05:37:00,
2013-07-11 00:42:00,69.1,56.5,30.18,West,270,0.0,0.0,64,0.00,,,0.00,meteohub,2013-07-11 05:42:00,
2013-07-11 00:47:00,69.1,56.5,30.18,West,270,0.0,0.0,64,0.00,,,0.00,meteohub,2013-07-11 05:47:00,
2013-07-11 00:52:00,68.9,56.3,30.18,West,270,0.0,0.0,64,0.00,,,0.00,meteohub,2013-07-11 05:52:00,
2013-07-11 00:57:00,68.5,55.9,30.18,West,270,0.0,0.0,64,0.00,,,0.00,meteohub,2013-07-11 05:57:00,
2013-07-11 01:02:00,68.5,55.9,30.18,West,270,0.0,0.0,64,0.00,,,0.00,meteohub,2013-07-11 06:02:00,
2013-07-11 01:07:00,68.4,56.1,30.18,West,270,0.0,0.0,65,0.00,,,0.00,meteohub,2013-07-11 06:07:00,
2013-07-11 01:12:00,68.2,55.9,30.15,WNW,292,0.0,0.0,65,0.00,,,0.00,meteohub,2013-07-11 06:12:00,
2013-07-11 01:17:00,68.0,55.8,30.15,West,270,0.0,0.0,65,0.00,,,0.00,meteohub,2013-07-11 06:17:00,
2013-07-11 01:22:00,67.8,55.6,30.18,West,270,0.0,0.0,65,0.00,,,0.00,meteohub,2013-07-11 06:22:00,
2013-07-11 01:27:00,67.6,55.9,30.18,West,270,0.0,0.0,66,0.00,,,0.00,meteohub,2013-07-11 06:27:00,
2013-07-11 01:32:00,67.5,55.8,30.18,West,270,0.0,0.0,66,0.00,,,0.00,meteohub,2013-07-11 06:32:00,
2013-07-11 01:37:00,67.3,55.6,30.18,West,270,0.0,0.0,66,0.00,,,0.00,meteohub,2013-07-11 06:37:00,
2013-07-11 01:42:00,67.1,55.4,30.18,West,270,0.0,0.0,66,0.00,,,0.00,meteohub,2013-07-11 06:42:00,
2013-07-11 01:47:00,67.1,55.8,30.18,West,270,0.0,0.0,67,0.00,,,0.00,meteohub,2013-07-11 06:47:00,
2013-07-11 01:52:00,66.9,55.6,30.18,West,270,0.0,0.0,67,0.00,,,0.00,meteohub,2013-07-11 06:52:00,
2013-07-11 01:57:00,66.7,55.4,30.18,West,270,0.0,0.0,67,0.00,,,0.00,meteohub,2013-07-11 06:57:00,
2013-07-11 02:02:00,66.7,55.8,30.18,West,270,0.0,0.0,68,0.00,,,0.00,meteohub,2013-07-11 07:02:00,
2013-07-11 02:07:00,66.7,55.8,30.18,West,270,0.0,0.0,68,0.00,,,0.00,meteohub,2013-07-11 07:07:00,
2013-07-11 02:12:00,66.6,55.8,30.18,WNW,292,0.0,0.0,68,0.00,,,0.00,meteohub,2013-07-11 07:12:00,
2013-07-11 02:17:00,66.6,55.8,30.18,West,270,0.0,0.0,68,0.00,,,0.00,meteohub,2013-07-11 07:17:00,
2013-07-11 02:22:00,66.4,55.6,30.18,West,270,0.0,0.0,68,0.00,,,0.00,meteohub,2013-07-11 07:22:00,
2013-07-11 02:27:00,66.4,55.9,30.18,West,270,0.0,0.0,69,0.00,,,0.00,meteohub,2013-07-11 07:27:00,
2013-07-11 02:32:00,66.2,55.8,30.18,West,270,0.0,0.0,69,0.00,,,0.00,meteohub,2013-07-11 07:32:00,
2013-07-11 02:37:00,66.0,55.6,30.18,West,270,0.0,0.0,69,0.00,,,0.00,meteohub,2013-07-11 07:37:00,
2013-07-11 02:42:00,65.8,55.8,30.18,West,270,0.0,0.0,70,0.00,,,0.00,meteohub,2013-07-11 07:42:00,
2013-07-11 02:47:00,65.8,55.8,30.18,West,270,0.0,0.0,70,0.00,,,0.00,meteohub,2013-07-11 07:47:00,
2013-07-11 02:52:00,65.8,55.8,30.18,West,270,0.0,0.0,70,0.00,,,0.00,meteohub,2013-07-11 07:52:00,
2013-07-11 02:57:00,65.7,55.6,30.18,West,270,0.0,0.0,70,0.00,,,0.00,meteohub,2013-07-11 07:57:00,
2013-07-11 03:02:00,65.7,55.6,30.18,West,270,0.0,0.0,70,0.00,,,0.00,meteohub,2013-07-11 08:02:00,
2013-07-11 03:07:00,65.5,55.4,30.18,West,270,0.0,0.0,70,0.00,,,0.00,meteohub,2013-07-11 08:07:00,
2013-07-11 03:12:00,65.5,55.4,30.18,West,270,0.0,0.0,70,0.00,,,0.00,meteohub,2013-07-11 08:12:00,
2013-07-11 03:17:00,65.3,55.2,30.18,West,270,0.0,0.0,70,0.00,,,0.00,meteohub,2013-07-11 08:17:00,
2013-07-11 03:22:00,65.1,55.6,30.18,West,270,0.0,0.0,71,0.00,,,0.00,meteohub,2013-07-11 08:22:00,
2013-07-11 03:27:00,64.8,55.2,30.18,West,270,0.0,0.0,71,0.00,,,0.00,meteohub,2013-07-11 08:27:00,
2013-07-11 03:32:00,64.8,55.2,30.18,West,270,0.0,0.0,71,0.00,,,0.00,meteohub,2013-07-11 08:32:00,
2013-07-11 03:37:00,64.6,55.0,30.18,West,270,0.0,0.0,71,0.00,,,0.00,meteohub,2013-07-11 08:37:00,
2013-07-11 03:42:00,64.6,55.0,30.18,West,270,0.0,0.0,71,0.00,,,0.00,meteohub,2013-07-11 08:42:00,
2013-07-11 03:47:00,64.6,55.0,30.18,West,270,0.0,0.0,71,0.00,,,0.00,meteohub,2013-07-11 08:47:00,
2013-07-11 03:52:00,64.4,54.9,30.18,West,270,0.0,0.0,71,0.00,,,0.00,meteohub,2013-07-11 08:52:00,
2013-07-11 03:57:00,64.2,55.0,30.18,West,270,0.0,0.0,72,0.00,,,0.00,meteohub,2013-07-11 08:57:00,
2013-07-11 04:02:00,64.2,55.0,30.18,West,270,0.0,0.0,72,0.00,,,0.00,meteohub,2013-07-11 09:02:00,
2013-07-11 04:07:00,64.0,54.9,30.18,West,270,0.0,0.0,72,0.00,,,0.00,meteohub,2013-07-11 09:07:00,
2013-07-11 04:12:00,64.0,55.2,30.18,West,270,0.0,0.0,73,0.00,,,0.00,meteohub,2013-07-11 09:12:00,
2013-07-11 04:17:00,64.0,55.2,30.18,West,270,0.0,0.0,73,0.00,,,0.00,meteohub,2013-07-11 09:17:00,
2013-07-11 04:22:00,63.9,55.0,30.18,West,270,0.0,0.0,73,0.00,,,0.00,meteohub,2013-07-11 09:22:00,
2013-07-11 04:27:00,63.9,55.0,30.18,WNW,292,0.0,0.0,73,0.00,,,0.00,meteohub,2013-07-11 09:27:00,
2013-07-11 04:32:00,63.9,55.4,30.18,West,270,0.0,0.0,74,0.00,,,0.00,meteohub,2013-07-11 09:32:00,
2013-07-11 04:37:00,63.9,55.4,30.18,NW,315,0.0,0.0,74,0.00,,,0.00,meteohub,2013-07-11 09:37:00,
2013-07-11 04:42:00,63.7,55.2,30.21,West,270,0.0,0.0,74,0.00,,,0.00,meteohub,2013-07-11 09:42:00,
2013-07-11 04:47:00,63.7,55.2,30.21,West,270,0.0,0.0,74,0.00,,,0.00,meteohub,2013-07-11 09:47:00,
2013-07-11 04:52:00,63.7,55.2,30.21,West,270,0.0,0.0,74,0.00,,,0.00,meteohub,2013-07-11 09:52:00,
2013-07-11 04:57:00,63.7,55.2,30.21,West,270,0.0,0.0,74,0.00,,,0.00,meteohub,2013-07-11 09:57:00,
2013-07-11 05:02:00,63.5,55.0,30.21,West,270,0.0,0.0,74,0.00,,,0.00,meteohub,2013-07-11 10:02:00,
2013-07-11 05:07:00,63.5,55.0,30.21,West,270,0.0,0.0,74,0.00,,,0.00,meteohub,2013-07-11 10:07:00,
2013-07-11 05:12:00,63.5,55.0,30.21,West,270,0.0,0.0,74,0.00,,,0.00,meteohub,2013-07-11 10:12:00,
2013-07-11 05:17:00,63.3,54.9,30.21,West,270,0.0,0.0,74,0.00,,,0.00,meteohub,2013-07-11 10:17:00,
2013-07-11 05:22:00,63.1,54.7,30.21,West,270,0.0,0.0,74,0.00,,,0.00,meteohub,2013-07-11 10:22:00,
2013-07-11 05:27:00,63.1,54.7,30.24,West,270,0.0,0.0,74,0.00,,,0.00,meteohub,2013-07-11 10:27:00,
2013-07-11 05:32:00,63.1,55.0,30.24,West,270,0.0,0.0,75,0.00,,,0.00,meteohub,2013-07-11 10:32:00,
2013-07-11 05:37:00,63.0,54.9,30.24,West,270,0.0,0.0,75,0.00,,,0.00,meteohub,2013-07-11 10:37:00,
2013-07-11 05:42:00,63.0,54.9,30.24,West,270,0.0,0.0,75,0.00,,,0.00,meteohub,2013-07-11 10:42:00,
2013-07-11 05:47:00,62.6,54.5,30.24,West,270,0.0,0.0,75,0.00,,,0.00,meteohub,2013-07-11 10:47:00,
2013-07-11 05:52:00,62.6,54.5,30.24,West,270,0.0,0.0,75,0.00,,,0.00,meteohub,2013-07-11 10:52:00,
2013-07-11 05:57:00,62.6,54.9,30.24,West,270,0.0,0.0,76,0.00,,,0.00,meteohub,2013-07-11 10:57:00,
2013-07-11 06:02:00,62.6,54.9,30.24,West,270,0.0,0.0,76,0.00,,,0.00,meteohub,2013-07-11 11:02:00,
2013-07-11 06:07:00,62.6,54.9,30.24,West,270,0.0,0.0,76,0.00,,,0.00,meteohub,2013-07-11 11:07:00,
2013-07-11 06:12:00,62.8,55.4,30.24,West,270,0.0,0.0,77,0.00,,,0.00,meteohub,2013-07-11 11:12:00,
2013-07-11 06:17:00,63.1,55.8,30.24,West,270,0.0,0.0,77,0.00,,,0.00,meteohub,2013-07-11 11:17:00,
2013-07-11 06:22:00,63.1,55.8,30.24,West,270,0.0,0.0,77,0.00,,,0.00,meteohub,2013-07-11 11:22:00,
2013-07-11 06:27:00,63.1,55.8,30.24,WNW,292,0.0,0.0,77,0.00,,,0.00,meteohub,2013-07-11 11:27:00,
2013-07-11 06:32:00,63.5,56.1,30.24,West,270,0.0,0.0,77,0.00,,,0.00,meteohub,2013-07-11 11:32:00,
2013-07-11 06:37:00,63.7,56.3,30.24,WNW,292,0.0,0.0,77,0.00,,,0.00,meteohub,2013-07-11 11:37:00,
2013-07-11 06:42:00,63.9,56.5,30.24,NNW,338,0.0,0.0,77,0.00,,,0.00,meteohub,2013-07-11 11:42:00,
2013-07-11 06:47:00,64.4,57.0,30.24,NW,315,0.0,0.0,77,0.00,,,0.00,meteohub,2013-07-11 11:47:00,
2013-07-11 06:52:00,64.8,57.4,30.24,NW,315,0.0,0.0,77,0.00,,,0.00,meteohub,2013-07-11 11:52:00,
2013-07-11 06:57:00,65.3,57.9,30.21,West,270,0.0,0.0,77,0.00,,,0.00,meteohub,2013-07-11 11:57:00,
2013-07-11 07:02:00,65.7,57.9,30.21,NW,315,0.0,0.0,76,0.00,,,0.00,meteohub,2013-07-11 12:02:00,
2013-07-11 07:07:00,65.8,58.1,30.24,West,270,0.0,0.0,76,0.00,,,0.00,meteohub,2013-07-11 12:07:00,
2013-07-11 07:12:00,66.2,57.7,30.24,NNW,338,0.0,0.0,74,0.00,,,0.00,meteohub,2013-07-11 12:12:00,
2013-07-11 07:17:00,66.4,57.9,30.24,North,0,0.0,0.0,74,0.00,,,0.00,meteohub,2013-07-11 12:17:00,
2013-07-11 07:22:00,66.4,57.4,30.24,NNW,338,0.0,0.0,73,0.00,,,0.00,meteohub,2013-07-11 12:22:00,
2013-07-11 07:27:00,66.6,57.6,30.24,NNW,338,0.0,2.0,73,0.00,,,0.00,meteohub,2013-07-11 12:27:00,
2013-07-11 07:32:00,66.7,57.4,30.24,NW,315,0.0,2.0,72,0.00,,,0.00,meteohub,2013-07-11 12:32:00,
2013-07-11 07:37:00,66.9,57.6,30.24,NW,315,0.0,5.0,72,0.00,,,0.00,meteohub,2013-07-11 12:37:00,
2013-07-11 07:42:00,67.3,57.9,30.24,ENE,68,0.0,5.0,72,0.00,,,0.00,meteohub,2013-07-11 12:42:00,
2013-07-11 07:47:00,67.3,57.9,30.24,NW,315,0.0,2.0,72,0.00,,,0.00,meteohub,2013-07-11 12:47:00,
2013-07-11 07:52:00,67.5,57.7,30.24,NE,45,0.0,0.0,71,0.00,,,0.00,meteohub,2013-07-11 12:52:00,
2013-07-11 07:57:00,67.6,57.9,30.24,NW,315,0.0,0.0,71,0.00,,,0.00,meteohub,2013-07-11 12:57:00,
2013-07-11 08:02:00,67.8,58.1,30.24,ENE,68,0.0,0.0,71,0.00,,,0.00,meteohub,2013-07-11 13:02:00,
2013-07-11 08:07:00,68.0,57.9,30.24,North,0,0.0,0.0,70,0.00,,,0.00,meteohub,2013-07-11 13:07:00,
2013-07-11 08:12:00,68.2,58.1,30.24,North,0,0.0,0.0,70,0.00,,,0.00,meteohub,2013-07-11 13:12:00,
2013-07-11 08:17:00,68.5,58.8,30.24,NNE,22,0.0,0.0,71,0.00,,,0.00,meteohub,2013-07-11 13:17:00,
2013-07-11 08:23:00,68.7,58.5,30.24,ENE,68,0.0,0.0,70,0.00,,,0.00,meteohub,2013-07-11 13:23:00,
2013-07-11 08:28:00,68.9,58.6,30.24,NNW,338,0.0,0.0,70,0.00,,,0.00,meteohub,2013-07-11 13:28:00,
2013-07-11 08:33:00,69.1,58.8,30.24,NNW,338,2.0,0.0,70,0.00,,,0.00,meteohub,2013-07-11 13:33:00,
2013-07-11 08:38:00,69.1,58.5,30.27,NW,315,0.0,4.0,69,0.00,,,0.00,meteohub,2013-07-11 13:38:00,
2013-07-11 08:44:00,69.3,59.0,30.27,NNW,338,0.0,4.0,70,0.00,,,0.00,meteohub,2013-07-11 13:44:00,
2013-07-11 08:49:00,69.6,59.4,30.27,NE,45,0.0,4.0,70,0.00,,,0.00,meteohub,2013-07-11 13:49:00,
2013-07-11 08:54:00,69.6,59.0,30.27,South,180,0.0,3.0,69,0.00,,,0.00,meteohub,2013-07-11 13:54:00,
2013-07-11 08:59:00,69.8,58.8,30.27,ENE,68,0.0,3.0,68,0.00,,,0.00,meteohub,2013-07-11 13:59:00,
2013-07-11 09:04:00,70.0,59.0,30.27,North,0,0.0,3.0,68,0.00,,,0.00,meteohub,2013-07-11 14:04:00,
2013-07-11 09:09:00,70.2,58.6,30.27,NE,45,0.0,2.0,67,0.00,,,0.00,meteohub,2013-07-11 14:09:00,
2013-07-11 09:14:00,70.3,58.5,30.27,West,270,0.0,0.0,66,0.00,,,0.00,meteohub,2013-07-11 14:14:00,
2013-07-11 09:19:00,70.5,58.6,30.27,ESE,112,0.0,0.0,66,0.00,,,0.00,meteohub,2013-07-11 14:19:00,
2013-07-11 09:25:00,70.7,58.3,30.27,East,90,0.0,3.0,65,0.00,,,0.00,meteohub,2013-07-11 14:25:00,
2013-07-11 09:30:00,71.1,59.2,30.27,NNW,338,0.0,3.0,66,0.00,,,0.00,meteohub,2013-07-11 14:30:00,
2013-07-11 09:35:00,71.1,57.4,30.27,NE,45,0.0,2.0,62,0.00,,,0.00,meteohub,2013-07-11 14:35:00,
2013-07-11 09:40:00,71.2,56.1,30.27,NNW,338,0.0,2.0,59,0.00,,,0.00,meteohub,2013-07-11 14:40:00,
2013-07-11 09:45:00,71.4,54.9,30.27,NE,45,0.0,2.0,56,0.00,,,0.00,meteohub,2013-07-11 14:45:00,
2013-07-11 09:50:00,71.6,54.5,30.27,WNW,292,0.0,2.0,55,0.00,,,0.00,meteohub,2013-07-11 14:50:00,
2013-07-11 09:55:00,71.8,54.3,30.27,East,90,0.0,2.0,54,0.00,,,0.00,meteohub,2013-07-11 14:55:00,
2013-07-11 10:00:00,71.8,53.2,30.27,NNW,338,0.0,9.0,52,0.00,,,0.00,meteohub,2013-07-11 15:00:00,
2013-07-11 10:05:00,72.0,52.3,30.27,NE,45,0.0,9.0,50,0.00,,,0.00,meteohub,2013-07-11 15:05:00,
2013-07-11 10:11:00,72.1,52.0,30.27,NNW,338,0.0,10.0,49,0.00,,,0.00,meteohub,2013-07-11 15:11:00,
2013-07-11 10:16:00,72.3,52.7,30.27,NNW,338,2.0,10.0,50,0.00,,,0.00,meteohub,2013-07-11 15:16:00,
2013-07-11 10:21:00,72.5,52.9,30.27,NW,315,0.0,10.0,50,0.00,,,0.00,meteohub,2013-07-11 15:21:00,
2013-07-11 10:26:00,72.7,51.3,30.27,NW,315,0.0,6.0,47,0.00,,,0.00,meteohub,2013-07-11 15:26:00,
2013-07-11 10:31:00,72.7,51.8,30.27,NW,315,0.0,6.0,48,0.00,,,0.00,meteohub,2013-07-11 15:31:00,
2013-07-11 10:37:00,72.9,50.4,30.27,NW,315,0.0,7.0,45,0.00,,,0.00,meteohub,2013-07-11 15:37:00,
2013-07-11 10:42:00,73.0,50.5,30.27,West,270,2.0,7.0,45,0.00,,,0.00,meteohub,2013-07-11 15:42:00,
2013-07-11 10:47:00,73.0,49.8,30.27,NW,315,0.0,7.0,44,0.00,,,0.00,meteohub,2013-07-11 15:47:00,
2013-07-11 10:52:00,73.0,49.8,30.27,NNW,338,0.0,7.0,44,0.00,,,0.00,meteohub,2013-07-11 15:52:00,
2013-07-11 10:57:00,73.4,50.2,30.27,East,90,0.0,7.0,44,0.00,,,0.00,meteohub,2013-07-11 15:57:00,
2013-07-11 11:02:00,73.4,49.6,30.27,NE,45,0.0,6.0,43,0.00,,,0.00,meteohub,2013-07-11 16:02:00,
2013-07-11 11:07:00,73.6,49.6,30.27,North,0,9.0,9.0,43,0.00,,,0.00,meteohub,2013-07-11 16:07:00,
2013-07-11 11:12:00,73.6,49.1,30.27,North,0,6.0,9.0,42,0.00,,,0.00,meteohub,2013-07-11 16:12:00,
2013-07-11 11:17:00,73.6,49.1,30.27,East,90,0.0,9.0,42,0.00,,,0.00,meteohub,2013-07-11 16:17:00,
2013-07-11 11:22:00,73.8,49.8,30.27,NW,315,0.0,9.0,43,0.00,,,0.00,meteohub,2013-07-11 16:22:00,
2013-07-11 11:28:00,73.8,49.3,30.27,NNW,338,4.0,10.0,42,0.00,,,0.00,meteohub,2013-07-11 16:28:00,
2013-07-11 11:33:00,73.9,50.0,30.27,North,0,0.0,10.0,43,0.00,,,0.00,meteohub,2013-07-11 16:33:00,
2013-07-11 11:38:00,74.1,49.6,30.27,North,0,0.0,10.0,42,0.00,,,0.00,meteohub,2013-07-11 16:38:00,
2013-07-11 11:43:00,74.1,49.6,30.27,North,0,0.0,8.0,42,0.00,,,0.00,meteohub,2013-07-11 16:43:00,
2013-07-11 11:49:00,74.1,49.6,30.27,WNW,292,4.0,8.0,42,0.00,,,0.00,meteohub,2013-07-11 16:49:00,
2013-07-11 11:54:00,74.3,49.8,30.27,NNE,22,6.0,10.0,42,0.00,,,0.00,meteohub,2013-07-11 16:54:00,
2013-07-11 11:59:00,74.3,49.1,30.27,NW,315,0.0,10.0,41,0.00,,,0.00,meteohub,2013-07-11 16:59:00,
2013-07-11 12:04:00,74.5,49.8,30.27,NE,45,0.0,6.0,42,0.00,,,0.00,meteohub,2013-07-11 17:04:00,
2013-07-11 12:09:00,74.5,48.6,30.27,North,0,0.0,6.0,40,0.00,,,0.00,meteohub,2013-07-11 17:09:00,
2013-07-11 12:14:00,74.5,48.6,30.27,East,90,0.0,4.0,40,0.00,,,0.00,meteohub,2013-07-11 17:14:00,
2013-07-11 12:19:00,74.7,49.5,30.27,NW,315,0.0,3.0,41,0.00,,,0.00,meteohub,2013-07-11 17:19:00,
2013-07-11 12:24:00,74.7,48.0,30.27,NW,315,0.0,3.0,39,0.00,,,0.00,meteohub,2013-07-11 17:24:00,
2013-07-11 12:29:00,74.7,48.0,30.27,East,90,0.0,5.0,39,0.00,,,0.00,meteohub,2013-07-11 17:29:00,
2013-07-11 12:35:00,74.8,48.9,30.27,East,90,6.0,6.0,40,0.00,,,0.00,meteohub,2013-07-11 17:35:00,
2013-07-11 12:40:00,74.8,48.2,30.27,NW,315,0.0,6.0,39,0.00,,,0.00,meteohub,2013-07-11 17:40:00,
2013-07-11 12:45:00,74.8,48.2,30.27,East,90,0.0,6.0,39,0.00,,,0.00,meteohub,2013-07-11 17:45:00,
2013-07-11 12:51:00,75.0,47.7,30.27,ENE,68,0.0,7.0,38,0.00,,,0.00,meteohub,2013-07-11 17:51:00,
2013-07-11 12:56:00,75.6,47.5,30.27,NE,45,0.0,6.0,37,0.00,,,0.00,meteohub,2013-07-11 17:56:00,
2013-07-11 13:01:00,75.6,48.2,30.27,West,270,0.0,3.0,38,0.00,,,0.00,meteohub,2013-07-11 18:01:00,
2013-07-11 13:06:00,75.6,49.6,30.24,NNW,338,0.0,3.0,40,0.00,,,0.00,meteohub,2013-07-11 18:06:00,
2013-07-11 13:11:00,75.7,49.6,30.24,NW,315,2.0,0.0,40,0.00,,,0.00,meteohub,2013-07-11 18:11:00,
2013-07-11 13:17:00,75.7,49.1,30.24,NE,45,2.0,2.0,39,0.00,,,0.00,meteohub,2013-07-11 18:17:00,
2013-07-11 13:22:00,76.1,48.0,30.24,East,90,0.0,5.0,37,0.00,,,0.00,meteohub,2013-07-11 18:22:00,
2013-07-11 13:27:00,76.1,47.3,30.24,NE,45,0.0,7.0,36,0.00,,,0.00,meteohub,2013-07-11 18:27:00,
2013-07-11 13:32:00,76.1,46.4,30.24,North,0,0.0,7.0,35,0.00,,,0.00,meteohub,2013-07-11 18:32:00,
2013-07-11 13:37:00,76.1,47.3,30.24,ESE,112,0.0,7.0,36,0.00,,,0.00,meteohub,2013-07-11 18:37:00,
2013-07-11 13:42:00,76.3,47.3,30.24,NW,315,0.0,7.0,36,0.00,,,0.00,meteohub,2013-07-11 18:42:00,
2013-07-11 13:47:00,76.3,47.3,30.24,NE,45,7.0,7.0,36,0.00,,,0.00,meteohub,2013-07-11 18:47:00,
2013-07-11 13:52:00,76.1,47.3,30.24,NNW,338,0.0,7.0,36,0.00,,,0.00,meteohub,2013-07-11 18:52:00,
2013-07-11 13:57:00,76.3,48.2,30.27,West,270,0.0,7.0,37,0.00,,,0.00,meteohub,2013-07-11 18:57:00,
2013-07-11 14:02:00,76.6,49.1,30.27,ENE,68,0.0,7.0,38,0.00,,,0.00,meteohub,2013-07-11 19:02:00,
2013-07-11 14:08:00,76.8,48.6,30.24,NE,45,0.0,4.0,37,0.00,,,0.00,meteohub,2013-07-11 19:08:00,
2013-07-11 14:13:00,76.8,48.6,30.24,NE,45,0.0,5.0,37,0.00,,,0.00,meteohub,2013-07-11 19:13:00,
2013-07-11 14:18:00,76.8,47.1,30.24,SE,135,0.0,7.0,35,0.00,,,0.00,meteohub,2013-07-11 19:18:00,
2013-07-11 14:24:00,76.8,47.1,30.24,NNW,338,0.0,7.0,35,0.00,,,0.00,meteohub,2013-07-11 19:24:00,
2013-07-11 14:29:00,76.8,47.1,30.24,East,90,0.0,7.0,35,0.00,,,0.00,meteohub,2013-07-11 19:29:00,
2013-07-11 14:34:00,76.8,47.8,30.24,NW,315,0.0,5.0,36,0.00,,,0.00,meteohub,2013-07-11 19:34:00,
2013-07-11 14:39:00,77.0,47.3,30.24,NW,315,0.0,2.0,35,0.00,,,0.00,meteohub,2013-07-11 19:39:00,
2013-07-11 14:44:00,76.8,47.1,30.24,NNE,22,0.0,6.0,35,0.00,,,0.00,meteohub,2013-07-11 19:44:00,
2013-07-11 14:49:00,77.0,48.0,30.24,East,90,0.0,6.0,36,0.00,,,0.00,meteohub,2013-07-11 19:49:00,
2013-07-11 14:55:00,77.5,48.6,30.24,NNW,338,0.0,6.0,36,0.00,,,0.00,meteohub,2013-07-11 19:55:00,
2013-07-11 15:00:00,77.5,46.9,30.24,ESE,112,2.0,5.0,34,0.00,,,0.00,meteohub,2013-07-11 20:00:00,
2013-07-11 15:05:00,77.5,46.9,30.24,NNW,338,0.0,5.0,34,0.00,,,0.00,meteohub,2013-07-11 20:05:00,
2013-07-11 15:11:00,77.5,47.7,30.21,ENE,68,0.0,5.0,35,0.00,,,0.00,meteohub,2013-07-11 20:11:00,
2013-07-11 15:16:00,77.5,46.9,30.21,ENE,68,0.0,5.0,34,0.00,,,0.00,meteohub,2013-07-11 20:16:00,
2013-07-11 15:21:00,77.5,47.7,30.21,ENE,68,0.0,4.0,35,0.00,,,0.00,meteohub,2013-07-11 20:21:00,
2013-07-11 15:27:00,77.4,46.0,30.24,NW,315,0.0,5.0,33,0.00,,,0.00,meteohub,2013-07-11 20:27:00,
2013-07-11 15:32:00,77.5,46.9,30.24,NE,45,0.0,5.0,34,0.00,,,0.00,meteohub,2013-07-11 20:32:00,
2013-07-11 15:37:00,77.5,46.9,30.24,NNW,338,0.0,7.0,34,0.00,,,0.00,meteohub,2013-07-11 20:37:00,
2013-07-11 15:42:00,77.5,46.9,30.24,NW,315,0.0,7.0,34,0.00,,,0.00,meteohub,2013-07-11 20:42:00,
2013-07-11 15:47:00,77.7,47.8,30.24,NW,315,0.0,7.0,35,0.00,,,0.00,meteohub,2013-07-11 20:47:00,
2013-07-11 15:52:00,77.7,47.1,30.24,NNW,338,0.0,7.0,34,0.00,,,0.00,meteohub,2013-07-11 20:52:00,
2013-07-11 15:57:00,77.7,46.4,30.24,ENE,68,2.0,7.0,33,0.00,,,0.00,meteohub,2013-07-11 20:57:00,
2013-07-11 16:03:00,77.9,47.3,30.24,ESE,112,0.0,5.0,34,0.00,,,0.00,meteohub,2013-07-11 21:03:00,
2013-07-11 16:08:00,78.1,48.2,30.24,East,90,0.0,5.0,35,0.00,,,0.00,meteohub,2013-07-11 21:08:00,
2013-07-11 16:13:00,78.3,48.4,30.24,NE,45,0.0,4.0,35,0.00,,,0.00,meteohub,2013-07-11 21:13:00,
2013-07-11 16:18:00,78.3,47.7,30.24,North,0,0.0,4.0,34,0.00,,,0.00,meteohub,2013-07-11 21:18:00,
2013-07-11 16:23:00,78.3,48.4,30.24,ENE,68,0.0,7.0,35,0.00,,,0.00,meteohub,2013-07-11 21:23:00,
2013-07-11 16:28:00,78.3,47.7,30.24,NNW,338,0.0,7.0,34,0.00,,,0.00,meteohub,2013-07-11 21:28:00,
2013-07-11 16:33:00,78.3,47.7,30.24,NW,315,0.0,7.0,34,0.00,,,0.00,meteohub,2013-07-11 21:33:00,
2013-07-11 16:39:00,78.3,46.8,30.24,NW,315,0.0,7.0,33,0.00,,,0.00,meteohub,2013-07-11 21:39:00,
2013-07-11 16:44:00,78.3,47.7,30.24,North,0,0.0,7.0,34,0.00,,,0.00,meteohub,2013-07-11 21:44:00,
2013-07-11 16:49:00,78.3,47.7,30.24,West,270,0.0,5.0,34,0.00,,,0.00,meteohub,2013-07-11 21:49:00,
2013-07-11 16:54:00,78.4,47.8,30.24,North,0,0.0,0.0,34,0.00,,,0.00,meteohub,2013-07-11 21:54:00,
2013-07-11 16:59:00,78.4,47.8,30.24,North,0,0.0,2.0,34,0.00,,,0.00,meteohub,2013-07-11 21:59:00,
2013-07-11 17:04:00,78.6,47.8,30.24,NW,315,0.0,4.0,34,0.00,,,0.00,meteohub,2013-07-11 22:04:00,
2013-07-11 17:09:00,78.4,47.8,30.24,NW,315,0.0,4.0,34,0.00,,,0.00,meteohub,2013-07-11 22:09:00,
2013-07-11 17:14:00,78.4,47.8,30.24,North,0,0.0,6.0,34,0.00,,,0.00,meteohub,2013-07-11 22:14:00,
2013-07-11 17:19:00,78.4,47.8,30.24,NNE,22,0.0,6.0,34,0.00,,,0.00,meteohub,2013-07-11 22:19:00,
2013-07-11 17:24:00,78.4,47.8,30.24,NE,45,0.0,6.0,34,0.00,,,0.00,meteohub,2013-07-11 22:24:00,
2013-07-11 17:30:00,78.4,46.9,30.24,East,90,0.0,2.0,33,0.00,,,0.00,meteohub,2013-07-11 22:30:00,
2013-07-11 17:35:00,78.4,47.8,30.24,East,90,0.0,0.0,34,0.00,,,0.00,meteohub,2013-07-11 22:35:00,
2013-07-11 17:41:00,78.3,46.8,30.24,NNW,338,0.0,0.0,33,0.00,,,0.00,meteohub,2013-07-11 22:41:00,
2013-07-11 17:46:00,78.3,47.7,30.24,North,0,0.0,0.0,34,0.00,,,0.00,meteohub,2013-07-11 22:46:00,
2013-07-11 17:52:00,78.3,48.4,30.24,NNE,22,0.0,0.0,35,0.00,,,0.00,meteohub,2013-07-11 22:52:00,
2013-07-11 17:57:00,78.3,48.4,30.24,ENE,68,0.0,0.0,35,0.00,,,0.00,meteohub,2013-07-11 22:57:00,
2013-07-11 18:02:00,78.3,48.4,30.24,NNE,22,0.0,0.0,35,0.00,,,0.00,meteohub,2013-07-11 23:02:00,
2013-07-11 18:07:00,78.1,48.2,30.24,ESE,112,0.0,0.0,35,0.00,,,0.00,meteohub,2013-07-11 23:07:00,
2013-07-11 18:12:00,78.1,48.9,30.21,NE,45,0.0,0.0,36,0.00,,,0.00,meteohub,2013-07-11 23:12:00,
2013-07-11 18:18:00,77.9,47.3,30.21,NE,45,0.0,0.0,34,0.00,,,0.00,meteohub,2013-07-11 23:18:00,
2013-07-11 18:24:00,77.7,46.4,30.21,North,0,0.0,0.0,33,0.00,,,0.00,meteohub,2013-07-11 23:24:00,
2013-07-11 18:29:00,77.7,47.1,30.21,ESE,112,0.0,0.0,34,0.00,,,0.00,meteohub,2013-07-11 23:29:00,
2013-07-11 18:34:00,77.9,48.0,30.21,ESE,112,0.0,0.0,35,0.00,,,0.00,meteohub,2013-07-11 23:34:00,
2013-07-11 18:39:00,77.9,48.7,30.21,North,0,0.0,0.0,36,0.00,,,0.00,meteohub,2013-07-11 23:39:00,
2013-07-11 18:44:00,77.7,48.7,30.21,North,0,0.0,0.0,36,0.00,,,0.00,meteohub,2013-07-11 23:44:00,
2013-07-11 18:49:00,77.7,48.7,30.21,NW,315,0.0,0.0,36,0.00,,,0.00,meteohub,2013-07-11 23:49:00,
2013-07-11 18:54:00,77.5,49.3,30.21,NW,315,0.0,0.0,37,0.00,,,0.00,meteohub,2013-07-11 23:54:00,
2013-07-11 19:00:00,77.5,49.3,30.21,NW,315,0.0,0.0,37,0.00,,,0.00,meteohub,2013-07-12 00:00:00,
2013-07-11 19:05:00,77.4,49.1,30.21,NW,315,0.0,0.0,37,0.00,,,0.00,meteohub,2013-07-12 00:05:00,
2013-07-11 19:10:00,77.4,49.1,30.21,NW,315,0.0,0.0,37,0.00,,,0.00,meteohub,2013-07-12 00:10:00,
2013-07-11 19:15:00,77.2,48.9,30.21,NW,315,0.0,0.0,37,0.00,,,0.00,meteohub,2013-07-12 00:15:00,
2013-07-11 19:20:00,77.2,50.4,30.21,WNW,292,0.0,0.0,39,0.00,,,0.00,meteohub,2013-07-12 00:20:00,
2013-07-11 19:25:00,77.2,51.1,30.21,WNW,292,0.0,0.0,40,0.00,,,0.00,meteohub,2013-07-12 00:25:00,
2013-07-11 19:30:00,77.2,51.1,30.21,West,270,0.0,0.0,40,0.00,,,0.00,meteohub,2013-07-12 00:30:00,
2013-07-11 19:36:00,77.0,50.9,30.21,West,270,0.0,0.0,40,0.00,,,0.00,meteohub,2013-07-12 00:36:00,
2013-07-11 19:41:00,76.6,51.3,30.18,West,270,0.0,0.0,41,0.00,,,0.00,meteohub,2013-07-12 00:41:00,
2013-07-11 19:46:00,76.5,51.1,30.18,WSW,248,0.0,0.0,41,0.00,,,0.00,meteohub,2013-07-12 00:46:00,
2013-07-11 19:51:00,76.3,51.4,30.18,WSW,248,0.0,0.0,42,0.00,,,0.00,meteohub,2013-07-12 00:51:00,
2013-07-11 19:56:00,76.1,52.0,30.18,WSW,248,0.0,0.0,43,0.00,,,0.00,meteohub,2013-07-12 00:56:00,
2013-07-11 20:01:00,75.9,51.8,30.18,WSW,248,0.0,0.0,43,0.00,,,0.00,meteohub,2013-07-12 01:01:00,
2013-07-11 20:07:00,75.7,51.6,30.18,WSW,248,0.0,0.0,43,0.00,,,0.00,meteohub,2013-07-12 01:07:00,
2013-07-11 20:12:00,75.4,52.0,30.18,WSW,248,0.0,0.0,44,0.00,,,0.00,meteohub,2013-07-12 01:12:00,
2013-07-11 20:17:00,75.0,52.2,30.18,WSW,248,0.0,0.0,45,0.00,,,0.00,meteohub,2013-07-12 01:17:00,
2013-07-11 20:23:00,74.5,52.3,30.18,WSW,248,0.0,0.0,46,0.00,,,0.00,meteohub,2013-07-12 01:23:00,
2013-07-11 20:28:00,74.1,52.7,30.18,WSW,248,0.0,0.0,47,0.00,,,0.00,meteohub,2013-07-12 01:28:00,
2013-07-11 20:33:00,73.8,52.9,30.18,WSW,248,0.0,0.0,48,0.00,,,0.00,meteohub,2013-07-12 01:33:00,
2013-07-11 20:38:00,73.4,53.1,30.18,WSW,248,0.0,0.0,49,0.00,,,0.00,meteohub,2013-07-12 01:38:00,
2013-07-11 20:43:00,73.0,53.2,30.18,WSW,248,0.0,0.0,50,0.00,,,0.00,meteohub,2013-07-12 01:43:00,
2013-07-11 20:49:00,72.7,54.1,30.18,WSW,248,0.0,0.0,52,0.00,,,0.00,meteohub,2013-07-12 01:49:00,
2013-07-11 20:54:00,72.5,54.0,30.18,WSW,248,0.0,0.0,52,0.00,,,0.00,meteohub,2013-07-12 01:54:00,
2013-07-11 20:59:00,72.1,54.1,30.18,WSW,248,0.0,0.0,53,0.00,,,0.00,meteohub,2013-07-12 01:59:00,
2013-07-11 21:04:00,71.8,54.3,30.18,WSW,248,0.0,0.0,54,0.00,,,0.00,meteohub,2013-07-12 02:04:00,
2013-07-11 21:09:00,71.6,54.1,30.21,WSW,248,0.0,0.0,54,0.00,,,0.00,meteohub,2013-07-12 02:09:00,
2013-07-11 21:14:00,71.2,54.3,30.21,WSW,248,0.0,0.0,55,0.00,,,0.00,meteohub,2013-07-12 02:14:00,
2013-07-11 21:20:00,71.1,54.5,30.21,WSW,248,0.0,0.0,56,0.00,,,0.00,meteohub,2013-07-12 02:20:00,
2013-07-11 21:25:00,70.9,54.9,30.18,WSW,248,0.0,0.0,57,0.00,,,0.00,meteohub,2013-07-12 02:25:00,
2013-07-11 21:30:00,70.7,54.7,30.18,WSW,248,0.0,0.0,57,0.00,,,0.00,meteohub,2013-07-12 02:30:00,
2013-07-11 21:35:00,70.5,54.5,30.18,WSW,248,0.0,0.0,57,0.00,,,0.00,meteohub,2013-07-12 02:35:00,
2013-07-11 21:40:00,70.3,54.3,30.21,WSW,248,0.0,0.0,57,0.00,,,0.00,meteohub,2013-07-12 02:40:00,
2013-07-11 21:45:00,70.2,54.1,30.21,WSW,248,0.0,0.0,57,0.00,,,0.00,meteohub,2013-07-12 02:45:00,
2013-07-11 21:50:00,69.8,54.9,30.21,WSW,248,0.0,0.0,59,0.00,,,0.00,meteohub,2013-07-12 02:50:00,
2013-07-11 21:55:00,69.4,55.0,30.21,WSW,248,0.0,0.0,60,0.00,,,0.00,meteohub,2013-07-12 02:55:00,
2013-07-11 22:00:00,69.3,55.2,30.21,WSW,248,0.0,0.0,61,0.00,,,0.00,meteohub,2013-07-12 03:00:00,
2013-07-11 22:04:00,69.1,55.0,30.21,WSW,248,0.0,0.0,61,0.00,,,0.00,meteohub,2013-07-12 03:04:00,
2013-07-11 22:07:00,69.1,55.6,30.21,WSW,248,0.0,0.0,62,0.00,,,0.00,meteohub,2013-07-12 03:07:00,
2013-07-11 22:17:00,68.5,55.4,30.21,ENE,68,0.0,0.0,63,0.00,,,0.00,meteohub,2013-07-12 03:17:00,
2013-07-11 22:22:00,68.0,55.8,30.24,SE,135,0.0,0.0,65,0.00,,,0.00,meteohub,2013-07-12 03:22:00,
2013-07-11 22:27:00,67.8,56.1,30.24,NE,45,0.0,0.0,66,0.00,,,0.00,meteohub,2013-07-12 03:27:00,
2013-07-11 22:32:00,67.8,56.1,30.24,NE,45,0.0,0.0,66,0.00,,,0.00,meteohub,2013-07-12 03:32:00,
2013-07-11 22:37:00,67.8,56.1,30.24,NNE,22,0.0,0.0,66,0.00,,,0.00,meteohub,2013-07-12 03:37:00,
2013-07-11 22:42:00,67.8,56.1,30.24,North,0,0.0,0.0,66,0.00,,,0.00,meteohub,2013-07-12 03:42:00,
2013-07-11 22:47:00,67.8,56.1,30.24,North,0,0.0,0.0,66,0.00,,,0.00,meteohub,2013-07-12 03:47:00,
2013-07-11 22:52:00,67.8,56.1,30.24,North,0,0.0,0.0,66,0.00,,,0.00,meteohub,2013-07-12 03:52:00,
2013-07-11 22:57:00,67.6,55.9,30.21,North,0,0.0,0.0,66,0.00,,,0.00,meteohub,2013-07-12 03:57:00,
2013-07-11 23:01:00,67.6,55.9,30.21,SSE,158,0.0,0.0,66,0.00,,,0.00,meteohub,2013-07-12 04:01:00,
2013-07-11 23:06:00,67.5,55.8,30.24,SSE,158,0.0,0.0,66,0.00,,,0.00,meteohub,2013-07-12 04:06:00,
2013-07-11 23:11:00,67.5,55.8,30.24,SSE,158,0.0,0.0,66,0.00,,,0.00,meteohub,2013-07-12 04:11:00,
2013-07-11 23:17:00,67.3,55.6,30.24,SSE,158,0.0,0.0,66,0.00,,,0.00,meteohub,2013-07-12 04:17:00,
2013-07-11 23:22:00,67.3,55.6,30.24,SSE,158,0.0,0.0,66,0.00,,,0.00,meteohub,2013-07-12 04:22:00,
2013-07-11 23:27:00,67.1,55.4,30.24,SSE,158,0.0,0.0,66,0.00,,,0.00,meteohub,2013-07-12 04:27:00,
2013-07-11 23:32:00,67.1,55.4,30.24,SSE,158,0.0,0.0,66,0.00,,,0.00,meteohub,2013-07-12 04:32:00,
2013-07-11 23:37:00,66.9,55.6,30.24,SSE,158,0.0,0.0,67,0.00,,,0.00,meteohub,2013-07-12 04:37:00,
2013-07-11 23:42:00,66.7,55.4,30.24,SSE,158,0.0,0.0,67,0.00,,,0.00,meteohub,2013-07-12 04:42:00,
2013-07-11 23:47:00,66.7,55.4,30.24,SSE,158,0.0,0.0,67,0.00,,,0.00,meteohub,2013-07-12 04:47:00,
2013-07-11 23:52:00,66.6,55.2,30.24,SSE,158,0.0,0.0,67,0.00,,,0.00,meteohub,2013-07-12 04:52:00,
2013-07-11 23:57:00,66.4,55.0,30.24,SSE,158,0.0,0.0,67,0.00,,,0.00,meteohub,2013-07-12 04:57:00,